Change the Weather History Date:

Tuesday, October 30, 2012

  Actual Average Record
Temperature  
Mean Temperature 46 °F 42 °F  
Max Temperature 68 °F 57 °F 72 °F (1934)
Min Temperature 23 °F 28 °F -2 °F (1971)
Degree Days  
Heating Degree Days 19 23  
Month to date heating degree days 461 543  
Since 1 July heating degree days 671 860  
Cooling Degree Days 0 0  
Month to date cooling degree days 0 0  
Year to date cooling degree days 164 117  
Moisture  
Dew Point 12 °F    
Average Humidity 36    
Maximum Humidity 60    
Minimum Humidity 11    
Precipitation  
Precipitation 0.00 in 0.06 in 1.54 in (1920)
Month to date precipitation 1.03 1.60  
Year to date precipitation 11.79 18.17  
Snow  
Snow 0.00 in 0.10 in 9.50 in (1974)
Month to date snowfall T 1.3  
Since 1 July snowfall T 1.3  
Snow Depth 0.00 in    
Sea Level Pressure  
Sea Level Pressure 30.15 in    
Wind  
Wind Speed 2 mph (SSE)    
Max Wind Speed 16 mph    
Max Gust Speed 18 mph    
Visibility 10 miles    
Events      
T = Trace of Precipitation, MM = Missing Value Source: NWS Daily Summary

Daily Weather History Graph

Daily Weather History Graph

Search for Another Location

Airport or City:

Trip Planner

Search our weather history database for the weather conditions in past years. The results will help you decide how hot, cold, wet, or windy it might be!

Date:

Astronomy

Oct. 30, 2012 Rise Set
Actual Time 6:46 AM MST 5:33 PM MST
Civil Twilight 6:20 AM MST 5:59 PM MST
Nautical Twilight 5:50 AM MST 6:29 PM MST
Astronomical Twilight 5:20 AM MST 6:59 PM MST
Moon 6:08 PM MST (10/30) 7:33 AM MST (10/30)
Length of Visible Light 11h 39m
Length of Day
10h 47m
Full, 99% of the Moon is Illuminated
Oct 30
Full
Nov 6
Last Quarter
Nov 13
New
Nov 20
First Quarter
Nov 28
Full

Hourly Weather History & Observations

Time (MST) Temp. Dew Point Humidity Pressure Visibility Wind Dir Wind Speed Gust Speed Precip Events Conditions
12:57 AM 28.9 °F 10.9 °F 47% 30.15 in 10.0 mi Calm Calm - N/A   Clear
1:57 AM 28.0 °F 10.9 °F 49% 30.15 in 10.0 mi Calm Calm - N/A   Clear
2:57 AM 27.0 °F 10.9 °F 51% 30.15 in 10.0 mi Calm Calm - N/A   Clear
3:57 AM 27.0 °F 10.9 °F 51% 30.15 in 10.0 mi Calm Calm - N/A   Clear
4:57 AM 26.1 °F 12.0 °F 55% 30.17 in 10.0 mi Calm Calm - N/A   Clear
6:57 AM 24.1 °F 12.9 °F 62% 30.27 in 10.0 mi Calm Calm - N/A   Clear
7:57 AM 35.1 °F 16.0 °F 46% 30.26 in 10.0 mi Calm Calm - N/A   Clear
8:57 AM 54.0 °F 17.1 °F 23% 30.18 in 10.0 mi Calm Calm - N/A   Clear
9:57 AM 61.0 °F 10.9 °F 14% 30.16 in 10.0 mi Calm Calm - N/A   Clear
10:57 AM 64.9 °F 10.9 °F 12% 30.14 in 10.0 mi Calm Calm - N/A   Clear
11:57 AM 66.9 °F 10.9 °F 11% 30.12 in 10.0 mi SW 8.1 mph - N/A   Clear
12:57 PM 66.9 °F 10.9 °F 11% 30.12 in 10.0 mi WSW 6.9 mph - N/A   Clear
1:57 PM 66.9 °F 10.0 °F 11% 30.09 in 10.0 mi SSE 5.8 mph - N/A   Clear
2:57 PM 66.9 °F 12.0 °F 12% 30.09 in 10.0 mi South 8.1 mph - N/A   Clear
3:57 PM 64.9 °F 12.9 °F 13% 30.11 in 10.0 mi East 8.1 mph - N/A   Clear
4:57 PM 62.1 °F 12.9 °F 15% 30.12 in 10.0 mi East 4.6 mph - N/A   Clear
5:57 PM 52.0 °F 15.1 °F 23% 30.17 in 10.0 mi Calm Calm - N/A   Clear
6:57 PM 44.1 °F 12.9 °F 28% 30.24 in 10.0 mi Calm Calm - N/A   Clear
7:57 PM 39.9 °F 12.9 °F 33% 30.19 in 10.0 mi Calm Calm - N/A   Clear
8:57 PM 36.0 °F 12.9 °F 39% 30.14 in 10.0 mi Calm Calm - N/A   Clear
9:57 PM 33.1 °F 12.9 °F 43% 30.14 in 10.0 mi Calm Calm - N/A   Clear
10:57 PM 32.0 °F 12.9 °F 45% 30.12 in 10.0 mi Calm Calm - N/A   Clear
11:57 PM 30.0 °F 12.9 °F 49% 30.11 in 10.0 mi Calm Calm - N/A   Clear